| time (UTC) | temp F | wind direction | speed MPH | gust MPH | rain 1hr in | rain 24hr in | rain mn in | humidity % | barometer mb |
| 20260902164545 | 85 | 256 | 0.0 | 3.0 | 0.00 | 0.07 | 0.00 | 66 | 1014.4 |
| 20260902163042 | 83 | 102 | 0.0 | 5.0 | 0.00 | 0.07 | 0.00 | 69 | 1014.6 |
| 20260902161543 | 82 | 143 | 2.0 | 8.0 | 0.00 | 0.07 | 0.00 | 70 | 1013.9 |
| 20260902154545 | 81 | 155 | 3.0 | 6.0 | 0.00 | 0.07 | 0.00 | 70 | 1014.3 |
| 20260902153041 | 80 | 60 | 3.0 | 7.0 | 0.00 | 0.07 | 0.00 | 72 | 1014.5 |
| 20260902151555 | 79 | 0 | 1.0 | 7.0 | 0.00 | 0.07 | 0.00 | 73 | 1014.6 |
| 20260902150048 | 79 | 77 | 1.0 | 4.0 | 0.00 | 0.07 | 0.00 | 74 | 1014.6 |
| 20260902144543 | 77 | 56 | 3.0 | 5.0 | 0.00 | 0.07 | 0.00 | 76 | 1014.6 |
| 20260902143045 | 76 | 122 | 2.0 | 5.0 | 0.00 | 0.07 | 0.00 | 76 | 1014.7 |
| 20260902141540 | 76 | 67 | 1.0 | 4.0 | 0.00 | 0.07 | 0.00 | 76 | 1015.0 |
| 20260902140047 | 76 | 131 | 1.0 | 6.0 | 0.00 | 0.07 | 0.00 | 75 | 1015.2 |
| 20260902134544 | 77 | 108 | 2.0 | 7.0 | 0.00 | 0.07 | 0.00 | 74 | 1015.0 |
| 20260902133047 | 76 | 57 | 3.0 | 6.0 | 0.00 | 0.07 | 0.00 | 77 | 1015.0 |
| 20260902131551 | 76 | 70 | 4.0 | 8.0 | 0.00 | 0.07 | 0.00 | 77 | 1015.4 |
| 20260902130045 | 76 | 56 | 2.0 | 5.0 | 0.00 | 0.07 | 0.00 | 79 | 1015.5 |
| 20260902124543 | 76 | 65 | 3.0 | 5.0 | 0.00 | 0.07 | 0.00 | 81 | 1015.4 |
| 20260902123046 | 75 | 0 | 1.0 | 6.0 | 0.00 | 0.07 | 0.00 | 84 | 1015.7 |
| 20260902121540 | 75 | 0 | 1.0 | 7.0 | 0.00 | 0.07 | 0.00 | 86 | 1015.6 |
| 20260902120046 | 74 | 0 | 0.0 | 4.0 | 0.00 | 0.07 | 0.00 | 86 | 1015.2 |
| 20260902114552 | 74 | 293 | 0.0 | 6.0 | 0.00 | 0.07 | 0.00 | 84 | 1015.3 |
| 20260902113040 | 73 | 0 | 0.0 | 0.0 | 0.00 | 0.07 | 0.00 | 83 | 1014.9 |
| 20260902111550 | 73 | 0 | 0.0 | 0.0 | 0.00 | 0.07 | 0.00 | 83 | 1014.0 |
| 20260902110058 | 73 | 0 | 0.0 | 0.0 | 0.00 | 0.07 | 0.00 | 83 | 1013.9 |
| 20260902104543 | 73 | 0 | 0.0 | 0.0 | 0.00 | 0.07 | 0.00 | 83 | 1014.2 |
| 20260902103042 | 73 | 0 | 0.0 | 0.0 | 0.00 | 0.07 | 0.00 | 83 | 1014.1 |
| 20260902101543 | 73 | 0 | 0.0 | 0.0 | 0.00 | 0.07 | 0.00 | 83 | 1014.2 |
| 20260902100043 | 73 | 0 | 0.0 | 0.0 | 0.00 | 0.07 | 0.00 | 83 | 1014.3 |
| 20260902094545 | 74 | 0 | 0.0 | 0.0 | 0.00 | 0.07 | 0.00 | 83 | 1014.5 |
| 20260902093047 | 73 | 0 | 0.0 | 0.0 | 0.00 | 0.07 | 0.00 | 84 | 1014.4 |
| 20260902091541 | 73 | 0 | 0.0 | 0.0 | 0.00 | 0.07 | 0.00 | 84 | 1014.4 |
| 20260902090043 | 74 | 0 | 0.0 | 0.0 | 0.00 | 0.07 | 0.00 | 84 | 1014.1 |
| 20260902084556 | 74 | 0 | 0.0 | 0.0 | 0.00 | 0.07 | 0.00 | 85 | 1014.1 |
| 20260902083047 | 74 | 0 | 0.0 | 0.0 | 0.00 | 0.07 | 0.00 | 85 | 1014.3 |
| 20260902081545 | 74 | 0 | 0.0 | 0.0 | 0.00 | 0.07 | 0.00 | 85 | 1014.0 |
| 20260902080055 | 75 | 0 | 0.0 | 0.0 | 0.00 | 0.07 | 0.00 | 85 | 1013.8 |
| 20260902074546 | 75 | 0 | 0.0 | 0.0 | 0.00 | 0.07 | 0.00 | 86 | 1014.2 |
| 20260902073046 | 76 | 0 | 0.0 | 0.0 | 0.00 | 0.07 | 0.00 | 86 | 1014.1 |
| 20260902071542 | 76 | 0 | 0.0 | 2.0 | 0.00 | 0.07 | 0.00 | 86 | 1014.1 |
| 20260902070044 | 76 | 0 | 0.0 | 0.0 | 0.00 | 0.07 | 0.00 | 86 | 1014.1 |
| 20260902064540 | 76 | 0 | 0.0 | 0.0 | 0.00 | 0.07 | 0.00 | 86 | 1013.9 |
| 20260902063043 | 76 | 0 | 0.0 | 0.0 | 0.00 | 0.07 | 0.00 | 85 | 1013.9 |
| 20260902060048 | 76 | 0 | 0.0 | 0.0 | 0.00 | 0.07 | 0.00 | 85 | 1014.4 |
| 20260902054547 | 76 | 0 | 0.0 | 0.0 | 0.00 | 0.07 | 0.00 | 86 | 1014.4 |
| 20260902053041 | 76 | 0 | 0.0 | 0.0 | 0.00 | 0.07 | 0.00 | 86 | 1014.2 |
| 20260902051547 | 76 | 0 | 0.0 | 0.0 | 0.00 | 0.07 | 0.00 | 86 | 1014.0 |
| 20260902050042 | 77 | 0 | 0.0 | 0.0 | 0.00 | 0.07 | 0.00 | 86 | 1013.8 |
| 20260902044540 | 77 | 0 | 0.0 | 0.0 | 0.00 | 0.07 | 0.07 | 86 | 1014.1 |
| 20260902043057 | 77 | 0 | 0.0 | 0.0 | 0.00 | 0.07 | 0.07 | 87 | 1013.9 |
| 20260902041546 | 77 | 0 | 0.0 | 0.0 | 0.00 | 0.07 | 0.07 | 86 | 1014.0 |
| 20260902040044 | 77 | 215 | 0.0 | 1.0 | 0.00 | 0.07 | 0.07 | 86 | 1013.9 |
| 20260902034542 | 77 | 0 | 0.0 | 0.0 | 0.00 | 0.07 | 0.07 | 86 | 1013.6 |
| 20260902033057 | 77 | 0 | 0.0 | 1.0 | 0.00 | 0.07 | 0.07 | 86 | 1013.7 |
| 20260902031545 | 77 | 0 | 0.0 | 0.0 | 0.00 | 0.07 | 0.07 | 86 | 1014.0 |
| 20260902030042 | 77 | 0 | 0.0 | 0.0 | 0.00 | 0.07 | 0.07 | 86 | 1014.0 |
| 20260902024542 | 77 | 0 | 0.0 | 1.0 | 0.00 | 0.07 | 0.07 | 86 | 1014.1 |
| 20260902023049 | 77 | 0 | 0.0 | 0.0 | 0.00 | 0.07 | 0.07 | 87 | 1014.3 |
| 20260902021543 | 77 | 0 | 0.0 | 0.0 | 0.00 | 0.07 | 0.07 | 87 | 1014.4 |
| 20260902020042 | 78 | 0 | 0.0 | 0.0 | 0.00 | 0.07 | 0.07 | 87 | 1014.3 |
| 20260902014540 | 78 | 0 | 0.0 | 0.0 | 0.00 | 0.07 | 0.07 | 87 | 1014.3 |
| 20260902013044 | 78 | 0 | 0.0 | 0.0 | 0.00 | 0.07 | 0.07 | 87 | 1014.0 |
| 20260902011542 | 78 | 0 | 0.0 | 0.0 | 0.00 | 0.07 | 0.07 | 87 | 1014.0 |
| 20260902010046 | 78 | 0 | 0.0 | 0.0 | 0.00 | 0.07 | 0.07 | 87 | 1013.9 |
| 20260902004549 | 78 | 0 | 0.0 | 0.0 | 0.00 | 0.07 | 0.07 | 87 | 1013.7 |
| 20260902003048 | 79 | 0 | 0.0 | 0.0 | 0.00 | 0.07 | 0.07 | 86 | 1013.6 |
| 20260902001540 | 79 | 0 | 0.0 | 0.0 | 0.00 | 0.07 | 0.07 | 86 | 1013.7 |
| 20260902000051 | 79 | 0 | 0.0 | 1.0 | 0.00 | 0.07 | 0.07 | 86 | 1013.7 |
| 20260901234549 | 79 | 0 | 0.0 | 1.0 | 0.00 | 0.07 | 0.07 | 86 | 1013.6 |
| 20260901233046 | 79 | 0 | 0.0 | 0.0 | 0.00 | 0.07 | 0.07 | 85 | 1013.5 |
| 20260901231545 | 79 | 0 | 0.0 | 1.0 | 0.00 | 0.07 | 0.07 | 85 | 1013.0 |
| 20260901230046 | 79 | 0 | 0.0 | 1.0 | 0.01 | 0.07 | 0.07 | 84 | 1013.3 |
| 20260901224542 | 79 | 230 | 0.0 | 3.0 | 0.01 | 0.07 | 0.07 | 82 | 1013.7 |
| 20260901223043 | 79 | 250 | 1.0 | 4.0 | 0.01 | 0.07 | 0.07 | 81 | 1014.1 |
| 20260901221608 | 78 | 0 | 0.0 | 3.0 | 0.05 | 0.07 | 0.07 | 84 | 1013.9 |
| 20260901220056 | 78 | 283 | 0.0 | 5.0 | 0.04 | 0.06 | 0.06 | 83 | 1013.8 |
| 20260901214546 | 78 | 253 | 1.0 | 6.0 | 0.04 | 0.06 | 0.06 | 82 | 1013.9 |
| 20260901213103 | 78 | 251 | 0.0 | 6.0 | 0.04 | 0.06 | 0.06 | 82 | 1014.0 |
| 20260901211545 | 79 | 0 | 2.0 | 9.0 | 0.00 | 0.02 | 0.02 | 80 | 1014.0 |
| 20260901210041 | 80 | 259 | 3.0 | 10.0 | 0.02 | 0.02 | 0.02 | 82 | 1014.1 |
| 20260901204545 | 80 | 264 | 3.0 | 9.0 | 0.02 | 0.02 | 0.02 | 84 | 1013.9 |
| 20260901203055 | 81 | 264 | 1.0 | 5.0 | 0.02 | 0.02 | 0.02 | 84 | 1014.1 |
| 20260901201540 | 82 | 221 | 1.0 | 9.0 | 0.02 | 0.02 | 0.02 | 80 | 1014.3 |
| 20260901200050 | 84 | 267 | 5.0 | 12.0 | 0.00 | 0.00 | 0.00 | 76 | 1014.5 |
| 20260901194545 | 85 | 256 | 3.0 | 7.0 | 0.00 | 0.00 | 0.00 | 74 | 1013.9 |
| 20260901193057 | 86 | 224 | 3.0 | 11.0 | 0.00 | 0.00 | 0.00 | 72 | 1014.5 |
| 20260901191542 | 86 | 261 | 5.0 | 11.0 | 0.00 | 0.00 | 0.00 | 69 | 1014.6 |
| 20260901190041 | 86 | 258 | 7.0 | 12.0 | 0.00 | 0.00 | 0.00 | 69 | 1014.3 |
| 20260901184545 | 87 | 238 | 6.0 | 11.0 | 0.00 | 0.00 | 0.00 | 71 | 1014.3 |
| 20260901183042 | 87 | 239 | 5.0 | 11.0 | 0.00 | 0.00 | 0.00 | 71 | 1014.4 |
| 20260901181543 | 87 | 222 | 3.0 | 9.0 | 0.00 | 0.00 | 0.00 | 73 | 1014.2 |
| 20260901180044 | 86 | 240 | 4.0 | 9.0 | 0.00 | 0.00 | 0.00 | 73 | 1014.3 |
| 20260901174547 | 86 | 280 | 3.0 | 9.0 | 0.00 | 0.00 | 0.00 | 75 | 1014.3 |
| 20260901173046 | 85 | 205 | 4.0 | 10.0 | 0.00 | 0.00 | 0.00 | 78 | 1014.6 |
| 20260901171546 | 86 | 252 | 2.0 | 7.0 | 0.00 | 0.00 | 0.00 | 78 | 1014.7 |
| 20260901170047 | 85 | 242 | 1.0 | 8.0 | 0.00 | 0.00 | 0.00 | 79 | 1014.7 |